Theta_e
314 314 312 310 313 317 322 324 324 324 324 325 325 325 325 325 325 324 323 324 326 328 328 329 329 329 330 330 329 327 325 321 317 315 315 316 317 318 318 319 319 319 320 320 321 321 321 322 322 322 323 325 325 324 323 320 318 318 319 319 319 320 320 320 320 319 319 318 315 314 318 323 322 319 319 319 320 320 320 321 321 322 322 322 322 321 321 321
313 314 313 311 311 314 319 322 323 324 324 325 325 325 325 326 325 325 323 323 325 327 328 330 329 329 329 329 328 326 324 321 317 316 318 318 317 318 319 319 319 320 320 320 320 320 321 322 322 323 323 325 324 323 324 322 319 320 320 319 320 320 320 319 319 319 318 317 316 314 316 321 322 320 318 320 321 320 321 321 321 321 322 322 322 322 321 321
312 314 315 314 313 312 316 320 322 323 325 325 325 326 325 326 325 325 324 323 324 325 328 329 329 328 329 329 328 324 320 320 318 320 323 322 319 318 318 319 319 320 320 320 321 321 321 322 323 324 325 326 324 323 323 322 321 320 319 321 321 320 319 318 318 318 316 316 316 314 314 318 320 319 318 320 321 320 321 322 322 322 323 322 322 322 322 321
312 313 315 316 315 313 312 317 320 321 324 326 325 325 325 325 325 325 324 323 323 324 327 328 328 328 328 328 326 321 318 319 319 323 327 324 320 318 317 318 318 319 319 319 320 321 322 322 323 324 326 327 325 324 325 324 323 320 319 322 321 319 319 318 317 317 316 316 316 314 313 315 317 317 318 320 320 320 321 322 322 322 322 321 321 322 322 322
311 312 313 315 317 316 312 313 318 319 321 324 325 325 325 325 325 325 324 324 323 323 326 328 328 329 329 326 322 318 319 321 322 326 329 324 321 319 317 318 317 317 318 318 319 320 322 322 323 324 326 328 326 325 327 325 322 320 321 321 318 318 319 317 316 316 316 315 314 313 314 315 315 315 317 319 320 321 321 321 321 321 321 320 320 321 322 322
311 311 312 313 316 317 315 313 315 318 319 320 323 325 325 326 326 325 324 323 323 323 325 328 329 329 328 323 319 318 321 325 324 326 329 326 324 321 319 318 318 318 318 318 319 321 323 322 322 325 327 328 327 327 328 324 321 323 323 320 317 316 317 315 314 314 314 314 313 314 315 314 314 315 316 317 319 320 320 319 319 319 319 319 319 320 321 321
311 311 311 312 313 315 316 316 315 316 318 318 320 323 325 326 326 326 324 323 323 323 324 327 329 328 325 321 319 320 322 325 323 325 327 326 326 324 322 319 318 319 319 319 320 321 322 321 323 325 327 327 327 327 326 323 321 324 326 323 318 316 316 315 313 314 314 314 314 314 314 314 315 316 314 315 317 317 317 317 317 317 318 318 318 319 319 320
311 311 311 310 311 313 315 316 317 316 316 317 318 320 322 325 326 326 325 323 323 324 324 326 328 326 322 320 321 322 321 323 323 324 325 325 324 324 323 321 320 320 319 320 319 320 321 321 323 324 326 326 327 327 323 323 322 322 326 324 319 316 315 314 313 315 314 314 315 313 314 315 315 314 314 314 316 316 316 316 317 316 317 317 318 318 318 319
310 310 311 310 310 311 313 315 316 316 315 316 318 318 319 322 325 326 325 323 323 323 323 325 327 324 320 321 322 322 321 323 323 323 324 324 322 321 321 320 321 321 320 321 320 321 321 322 323 323 326 326 326 326 322 325 326 324 326 323 320 317 315 314 314 314 314 314 313 313 314 315 314 313 314 315 316 317 316 316 316 316 316 317 317 318 318 319
310 310 310 310 310 310 312 313 314 315 315 316 318 318 318 319 322 326 326 324 322 323 323 324 326 322 320 321 322 322 322 323 324 323 323 324 321 320 321 320 321 321 321 321 321 321 321 323 324 323 325 325 325 324 321 325 324 322 324 322 319 318 315 315 315 314 313 313 313 314 316 315 312 312 315 316 317 317 316 315 315 315 316 316 316 317 318 318
310 309 308 309 309 309 310 312 312 312 313 314 316 317 318 318 319 323 326 325 323 322 322 324 324 321 321 322 321 321 322 323 324 324 323 324 322 321 321 321 321 322 321 321 321 321 321 322 323 323 324 324 324 321 320 323 320 319 321 321 320 319 318 317 317 316 314 315 314 313 315 313 311 312 315 317 317 316 316 315 315 315 315 316 316 317 317 317
309 308 308 308 308 309 310 312 312 310 310 311 313 313 315 317 317 320 324 326 324 322 322 323 324 322 321 321 321 322 322 323 324 324 323 323 323 322 321 321 321 321 321 320 320 320 320 321 322 323 324 324 323 320 321 321 318 317 319 322 321 319 320 320 320 318 316 318 315 313 316 315 312 312 314 316 316 316 315 315 315 315 315 316 316 316 316 317
308 307 307 307 307 308 309 311 312 311 309 309 310 310 311 314 316 318 321 324 325 323 322 322 324 323 321 321 321 321 323 324 324 324 322 323 323 322 321 321 321 321 321 321 320 320 320 321 322 323 323 322 321 320 320 317 316 317 317 322 322 320 322 321 320 317 316 319 314 314 322 325 319 314 315 317 316 316 315 314 315 315 315 315 316 316 316 317
308 307 307 306 307 307 307 309 311 311 309 308 309 310 310 311 314 316 318 322 325 324 322 322 323 324 322 322 322 321 323 324 324 323 322 323 322 322 321 321 321 321 321 321 321 321 320 320 321 322 321 320 318 318 317 315 316 318 318 321 322 326 325 318 316 315 316 317 312 315 323 326 324 317 315 316 315 314 315 315 315 315 315 315 315 316 316 316
307 307 307 306 306 306 306 307 309 310 311 310 310 310 310 310 312 314 315 318 322 325 324 322 324 324 322 322 322 322 322 323 323 323 323 323 322 322 321 321 321 321 321 322 322 321 319 319 321 321 319 318 316 316 316 316 316 317 322 324 322 325 326 317 313 314 317 315 310 316 322 323 324 320 317 316 314 313 314 316 316 315 315 315 315 315 316 316
308 307 307 306 306 306 306 307 308 310 312 312 312 312 311 311 311 312 313 315 318 323 324 323 323 322 322 322 323 322 322 323 323 323 323 323 323 323 321 319 319 319 320 320 321 320 319 319 320 319 317 315 315 316 317 319 318 317 323 327 323 324 327 322 316 313 315 315 311 315 322 323 323 320 319 318 316 313 314 316 316 315 315 315 315 315 315 315
308 307 307 306 306 306 306 306 307 308 310 311 312 312 312 312 312 312 312 312 314 318 322 323 323 322 322 322 322 323 323 322 323 323 323 322 322 323 320 317 316 316 317 318 319 318 319 319 319 319 317 316 316 317 321 323 321 318 320 325 325 324 325 325 321 314 313 313 313 314 317 321 322 319 316 315 314 313 313 315 315 316 316 316 316 316 316 316
308 308 307 307 306 306 306 306 306 306 307 309 309 310 311 310 310 310 310 311 311 313 316 320 322 323 323 321 321 324 323 323 323 322 323 322 322 323 322 317 314 315 315 317 317 317 318 317 317 319 318 318 317 319 326 326 322 320 322 325 325 323 322 324 323 316 312 312 314 314 314 316 319 318 317 315 313 312 313 314 315 316 316 316 316 316 316 316
308 307 307 307 306 306 306 306 307 306 306 309 310 310 310 310 309 309 310 310 311 312 313 316 322 325 324 322 321 323 323 323 322 322 322 321 321 322 321 317 314 315 316 317 316 316 317 316 316 319 319 320 319 320 327 325 322 323 323 325 326 324 322 322 321 315 312 313 313 314 315 315 316 317 317 316 314 313 313 313 314 315 314 314 315 315 316 315
308 307 307 307 307 306 306 306 307 307 306 308 311 312 311 311 311 310 310 310 310 311 311 314 320 322 320 321 322 322 323 323 322 322 322 321 321 320 317 315 314 315 316 316 316 316 316 318 318 319 320 320 319 320 323 322 323 323 323 324 324 325 324 321 319 313 311 315 316 316 315 315 315 315 315 316 315 313 313 313 313 314 314 314 313 314 314 314
308 308 308 307 307 306 306 306 306 307 307 307 310 312 311 311 311 311 311 311 310 310 310 311 314 315 315 318 321 323 322 322 322 322 322 321 321 320 316 316 317 317 317 316 317 316 316 319 319 318 319 319 319 320 321 320 322 322 322 323 322 323 324 320 317 313 311 314 319 318 316 317 316 316 317 316 315 314 314 314 313 313 314 314 313 313 314 314
308 308 308 307 307 306 306 306 306 307 307 307 308 310 310 310 310 310 311 311 310 310 310 310 311 311 312 314 318 323 322 322 322 321 322 321 320 320 318 317 318 319 318 317 317 317 317 319 319 318 319 319 318 319 319 320 320 322 322 322 323 323 322 320 317 314 312 314 319 318 316 318 318 317 318 318 316 316 315 315 314 314 314 314 314 314 314 314
307 307 307 307 306 306 306 306 306 306 307 307 307 308 310 310 309 309 310 310 311 310 309 310 311 311 311 311 315 321 323 321 321 320 321 321 320 320 319 319 319 319 319 318 318 319 319 319 319 319 318 318 318 318 318 319 320 321 322 323 325 322 322 325 320 314 313 314 316 316 315 317 318 317 317 318 318 316 316 315 315 314 314 315 315 315 315 315
307 307 306 306 306 306 306 306 306 306 307 307 307 308 309 311 310 309 309 310 311 310 309 309 309 310 311 311 313 319 323 322 321 320 321 321 319 320 320 320 320 320 320 319 319 320 319 320 319 318 318 318 318 318 318 319 320 321 321 324 324 321 322 323 318 315 315 315 313 315 319 321 321 321 319 320 320 317 316 315 314 314 314 315 315 315 315 315
307 306 306 306 305 305 305 305 306 306 306 307 307 308 309 310 310 310 310 311 310 310 310 309 309 309 310 311 312 316 322 322 320 320 321 321 320 320 320 320 322 321 320 318 319 320 319 320 319 318 318 318 319 318 318 320 321 321 320 322 322 320 319 319 317 318 322 322 316 315 324 326 322 323 322 321 321 319 318 316 315 315 314 314 314 315 316 316
306 305 305 305 305 305 304 304 305 306 306 306 307 307 308 310 309 309 310 311 310 310 311 310 311 310 311 312 312 314 321 322 320 321 321 321 321 321 321 321 321 321 319 318 320 321 319 319 318 318 319 319 319 319 318 319 322 323 320 319 319 320 320 319 319 321 325 325 316 313 322 326 322 322 322 321 321 320 319 318 317 317 315 314 314 315 316 316
305 304 304 304 304 304 303 303 304 304 305 305 306 306 307 308 308 308 310 311 311 312 311 311 312 312 313 313 312 315 323 323 320 320 321 321 322 321 322 322 321 321 319 320 324 322 318 319 319 319 320 320 321 320 318 318 322 323 320 318 318 319 320 320 320 322 322 321 316 313 317 322 322 321 320 320 319 320 319 319 319 318 317 315 315 315 316 316
304 304 304 304 304 303 303 303 303 303 304 305 305 306 306 307 307 308 310 311 313 312 311 311 312 314 315 314 313 316 322 322 320 319 320 321 322 321 322 321 320 321 320 322 326 321 318 319 319 319 320 321 322 321 318 318 321 321 318 318 318 318 319 319 319 320 318 317 320 319 316 321 324 320 318 318 319 319 319 319 319 318 317 317 316 316 316 316
303 303 303 303 303 303 303 303 303 303 304 306 305 305 306 306 307 309 309 310 313 312 311 313 313 314 316 317 315 316 319 322 320 319 319 320 320 319 321 321 320 322 320 320 322 319 318 319 319 319 320 321 322 320 317 318 319 317 316 318 317 317 317 317 318 318 315 317 322 320 316 322 326 321 319 319 319 320 320 319 319 319 319 317 316 316 316 316
301 302 302 302 302 303 302 303 302 303 304 305 305 305 306 306 307 309 308 310 314 314 313 314 315 315 317 318 318 318 319 320 319 318 318 319 318 317 319 320 320 322 319 317 315 315 316 317 319 320 319 320 320 318 317 318 317 315 316 316 315 314 314 315 315 315 318 321 322 319 317 321 325 324 322 320 318 318 320 320 320 320 320 318 316 316 316 316
301 301 301 301 302 302 302 302 302 303 303 303 304 306 307 306 307 307 307 311 315 315 315 315 315 317 316 316 318 319 320 319 317 318 318 318 316 316 319 320 320 320 319 317 315 313 315 318 319 318 316 318 318 316 316 316 315 315 315 316 316 315 314 315 315 315 322 325 320 318 317 319 324 324 320 319 316 315 316 317 318 319 319 318 317 316 316 316
300 301 301 301 301 302 302 302 302 303 303 302 304 307 307 306 306 305 307 310 312 313 315 316 316 317 315 315 317 319 321 319 317 318 318 318 317 316 320 321 320 321 321 320 317 315 316 318 316 314 314 317 318 316 315 314 314 315 316 319 321 319 319 321 319 318 323 322 315 315 317 319 323 322 318 318 317 316 317 315 315 317 318 318 318 317 317 316
300 301 301 301 301 301 301 301 301 301 302 302 303 306 306 305 305 306 307 309 309 311 314 316 317 317 315 315 316 318 320 320 318 318 318 319 318 317 320 320 319 322 323 321 318 315 317 317 313 313 315 317 319 318 315 314 314 315 317 322 323 321 323 326 322 320 322 318 312 312 315 318 321 320 318 317 318 319 318 316 315 315 316 317 317 316 316 315
300 300 301 301 300 301 301 301 301 302 302 302 303 305 305 305 306 306 307 308 309 310 312 314 317 317 316 315 316 317 319 319 319 319 319 319 319 318 320 320 319 320 321 320 317 316 320 319 315 315 315 317 319 319 316 314 315 315 318 322 323 321 324 327 324 323 323 317 311 312 316 321 321 317 314 314 315 316 314 313 312 313 314 315 314 314 313 312
300 300 300 300 300 301 301 301 302 302 303 302 303 305 306 306 307 305 305 307 310 312 312 313 316 317 317 316 316 317 318 317 319 320 320 320 320 319 320 320 319 318 320 322 318 317 321 320 315 314 314 316 319 318 315 315 316 316 317 321 322 322 321 320 319 318 318 315 313 313 316 318 318 315 313 314 314 313 313 313 311 311 312 313 313 313 313 312
300 299 300 300 300 300 300 300 301 302 303 303 303 304 305 306 306 305 305 307 310 313 314 315 316 317 317 317 317 317 316 315 317 320 320 320 320 320 319 318 319 318 320 322 319 318 321 318 313 312 312 314 318 317 315 317 318 317 318 320 319 317 316 317 316 312 313 319 319 314 315 316 316 317 316 316 317 315 315 316 314 312 311 311 312 313 314 315
299 299 299 299 299 300 300 300 301 301 303 303 302 302 304 304 305 307 308 308 310 312 315 316 316 316 317 317 316 317 316 315 315 317 320 319 319 320 319 318 318 318 319 320 318 319 320 315 311 312 314 314 315 315 315 317 317 317 318 318 315 314 315 317 318 315 315 322 321 315 316 318 318 320 317 314 316 316 315 316 316 315 313 311 311 312 313 314
299 299 299 299 299 299 299 300 300 301 302 303 302 302 303 303 304 306 308 310 310 311 312 314 315 316 317 317 317 316 316 316 315 316 318 319 319 319 319 318 318 317 318 319 319 317 318 315 310 311 314 312 311 315 316 315 314 314 317 317 316 318 318 316 317 318 318 321 321 315 314 315 317 319 317 315 315 315 315 315 315 316 315 313 312 312 313 313
298 298 299 299 298 298 299 299 300 301 301 302 302 303 303 303 304 304 306 308 309 310 310 311 314 315 316 316 316 316 317 317 316 315 317 319 318 318 318 318 317 317 318 318 318 317 317 317 313 310 311 311 311 315 317 316 313 312 314 316 317 318 319 317 316 318 320 321 321 318 315 315 317 317 317 317 316 316 317 317 316 317 317 315 313 314 313 313
298 298 299 299 298 298 298 299 300 300 301 301 302 302 303 303 304 304 304 305 308 310 310 310 311 313 314 316 317 316 316 317 317 316 316 317 317 317 318 318 317 317 317 317 317 317 316 317 315 310 309 312 313 315 317 317 314 312 315 317 317 315 315 317 316 315 317 319 320 320 320 319 316 314 315 317 317 317 318 317 316 318 317 315 313 313 313 312
298 298 298 299 298 298 299 299 300 300 300 301 301 302 302 303 303 304 305 305 306 309 310 310 310 311 312 315 317 316 315 315 316 316 316 316 317 318 318 317 317 317 317 316 316 317 316 316 315 311 310 312 314 313 315 316 314 313 315 317 317 315 314 319 320 314 313 316 316 317 320 320 316 312 313 315 316 316 317 316 316 317 315 313 313 313 313 312
298 298 298 299 299 299 299 300 300 300 300 300 301 302 302 303 303 303 304 304 305 308 309 310 311 311 311 313 315 315 315 314 314 315 316 316 317 318 318 316 316 317 315 316 316 315 314 314 313 311 311 312 312 311 311 314 314 314 314 315 317 315 315 320 322 317 313 313 312 312 316 319 316 312 312 314 315 314 314 313 313 314 313 312 312 312 312 312
298 298 298 299 299 299 299 300 300 300 300 300 301 301 302 302 302 303 303 304 305 306 308 310 311 312 312 312 312 313 315 315 314 314 316 317 317 317 317 316 317 316 315 317 317 314 313 314 313 311 311 310 310 309 309 312 314 314 313 314 315 316 316 316 315 315 315 314 314 315 317 318 316 314 314 313 312 311 310 309 310 311 310 310 311 311 311 311
298 298 298 299 300 300 300 300 300 299 300 300 301 301 301 302 302 302 302 303 304 305 306 308 310 311 313 313 312 313 315 315 314 313 314 317 317 316 315 316 316 316 316 317 316 315 316 316 314 313 313 312 312 312 311 311 312 313 313 313 314 316 316 312 310 312 316 317 317 318 320 319 315 313 312 310 309 310 310 309 308 309 309 309 310 310 311 311
297 297 298 299 299 299 299 300 300 300 300 300 300 301 301 302 302 302 303 303 304 305 305 307 309 310 312 313 313 313 314 315 315 314 314 316 315 313 314 315 315 316 316 316 315 315 318 317 315 315 315 315 315 314 313 312 311 312 313 313 314 315 314 313 312 313 316 318 317 318 320 318 312 310 311 310 310 311 311 310 308 308 309 309 309 310 311 311
297 297 297 298 298 297 298 299 299 299 300 300 300 301 301 301 302 303 303 303 304 305 305 306 308 309 311 312 313 314 314 314 315 314 314 317 316 313 313 315 315 315 315 315 314 315 316 317 316 317 317 316 316 316 315 313 312 312 313 313 313 314 314 314 314 315 316 317 316 317 319 317 313 311 311 312 311 311 313 311 308 308 310 310 309 310 311 311
297 296 297 298 297 297 298 298 298 298 299 300 300 301 301 301 302 302 303 303 304 304 305 306 307 309 310 312 313 313 314 314 314 312 313 315 315 313 313 314 314 315 315 314 313 314 315 316 317 318 319 317 316 316 315 314 313 313 313 313 313 314 315 315 315 316 316 316 316 317 318 318 316 312 312 313 312 312 315 313 309 308 310 310 310 310 311 311
297 297 297 298 298 298 298 298 298 298 298 299 300 300 301 301 302 302 303 303 304 304 305 305 307 308 309 311 313 313 313 314 313 313 312 313 313 313 313 313 314 314 314 312 312 314 315 317 317 318 319 318 316 316 315 314 314 313 313 313 313 313 314 315 315 316 316 317 318 318 318 318 317 313 312 314 313 313 315 313 309 308 310 311 311 311 311 312
296 297 297 297 298 299 299 299 298 298 298 299 299 300 301 301 302 302 303 303 304 305 305 305 306 307 308 310 312 312 313 314 313 313 313 312 312 313 314 314 313 313 313 312 312 313 316 317 317 317 318 317 314 314 314 314 314 314 313 313 312 312 313 314 314 315 315 316 317 317 317 317 316 315 313 313 313 312 311 309 308 308 309 310 311 312 312 312
296 296 297 297 297 298 299 299 298 298 298 299 299 300 300 301 301 302 303 303 304 304 305 305 305 306 308 310 311 312 313 314 314 313 313 313 313 313 314 315 314 312 313 313 312 313 315 318 317 317 317 315 312 313 315 315 315 314 313 313 312 312 313 313 314 314 315 316 316 316 317 316 315 315 314 313 312 310 309 310 310 310 310 311 312 312 312 312
296 297 297 297 297 298 298 298 297 297 298 298 299 300 300 300 301 301 303 303 304 304 305 305 306 306 307 309 310 311 312 313 314 314 313 313 314 314 314 315 314 313 312 313 313 313 314 316 317 316 317 315 311 311 314 314 314 314 314 313 313 312 313 313 313 314 315 315 316 316 316 316 315 313 313 314 312 311 311 312 313 312 312 312 313 313 313 313
296 296 296 296 297 297 297 297 297 297 298 298 298 299 300 300 301 301 302 304 304 305 305 306 306 306 306 308 310 311 311 312 313 313 313 313 313 313 313 313 313 313 312 312 313 313 314 315 315 315 318 317 312 310 312 314 314 314 314 313 312 312 312 313 313 313 314 315 315 316 315 315 314 313 313 313 311 311 313 313 312 312 312 313 313 313 313 313
Wind_Speed
28 29 28 33 39 34 30 34 37 37 36 35 34 34 35 34 32 30 28 25 24 25 27 28 27 24 22 19 21 25 28 30 31 32 33 35 31 22 21 22 21 23 22 20 19 17 14 11 9 7 6 5 4 6 8 7 5 4 2 4 5 5 6 5 7 5 1 3 3 4 8 7 3 7 8 6 8 8 8 12 13 13 15 12 7 5 5 11
27 27 26 29 34 36 32 29 34 38 37 35 35 34 35 36 35 32 29 27 25 24 26 28 27 25 23 21 21 23 28 31 31 35 38 37 33 24 20 22 22 22 21 19 19 18 15 12 10 9 7 6 6 6 7 7 7 5 1 4 6 4 3 2 4 5 1 3 4 3 7 8 3 6 10 7 7 8 8 11 14 14 15 17 13 9 7 11
27 26 25 25 27 33 35 29 28 34 38 36 35 35 35 36 36 34 31 29 27 25 26 27 27 25 24 22 21 22 24 26 30 38 39 37 36 28 21 21 23 22 22 18 17 17 14 11 10 10 9 7 7 8 7 7 8 5 3 6 5 3 2 2 4 4 3 2 2 1 5 8 5 6 9 7 5 7 10 11 13 16 18 20 18 14 10 12
27 26 24 24 23 26 33 32 26 27 36 39 36 35 36 36 36 36 33 31 29 26 26 27 28 27 26 24 21 20 18 16 25 35 33 34 39 32 22 21 22 23 23 21 18 16 14 11 9 10 11 8 7 9 8 8 8 5 6 8 2 5 3 4 5 5 6 4 1 2 5 6 6 8 9 7 5 6 13 16 15 16 18 20 21 19 15 15
27 26 25 24 22 22 27 33 31 23 27 36 39 38 37 36 36 36 36 33 31 28 27 27 28 28 26 25 23 21 17 7 15 28 28 30 38 36 27 22 23 23 22 23 21 19 17 13 9 11 10 6 7 8 8 11 8 5 8 6 3 6 5 3 4 5 6 5 3 4 4 4 5 9 11 10 8 5 9 15 17 17 17 19 19 19 19 18
26 25 26 25 22 20 21 28 33 27 21 25 34 39 38 37 36 36 37 35 33 31 28 27 27 28 27 26 24 25 23 5 3 20 28 27 33 37 32 24 24 25 22 22 20 20 19 15 10 11 9 5 9 9 5 11 11 7 9 6 3 5 4 3 4 5 5 5 5 4 3 4 5 6 10 14 13 10 10 12 13 13 15 17 17 18 21 21
24 23 25 26 24 21 19 22 27 29 24 19 25 35 38 39 39 36 37 36 35 33 30 29 27 28 28 27 26 28 28 11 4 10 23 26 28 33 34 28 26 25 24 24 23 24 23 18 13 11 9 5 9 10 5 9 11 9 8 7 6 5 4 3 4 4 3 4 4 3 4 5 6 5 7 14 17 15 15 15 13 11 11 12 15 18 21 23
23 22 22 24 25 23 21 20 20 24 24 20 20 27 32 36 40 38 37 36 36 34 32 31 29 30 31 31 32 27 31 24 6 5 13 26 27 27 30 29 29 27 26 27 26 28 26 22 18 12 9 6 7 9 8 8 7 10 9 5 6 6 4 5 5 6 5 5 6 6 7 8 8 6 6 13 17 16 16 16 16 14 12 12 14 16 20 23
23 22 21 23 24 24 23 22 20 19 21 20 18 21 25 29 37 39 38 37 37 35 34 33 30 32 32 35 34 23 31 35 18 3 6 25 33 29 31 31 31 29 27 26 24 25 25 24 23 17 10 7 7 9 12 9 6 12 13 4 5 5 3 5 6 6 6 6 6 7 10 10 8 8 9 16 19 18 19 18 18 17 17 16 15 16 19 22
23 21 21 21 23 24 23 22 22 20 19 19 17 15 17 22 29 37 40 38 37 37 35 34 33 34 35 37 31 17 28 37 28 12 3 21 39 35 34 33 32 31 27 25 22 21 23 23 26 23 10 5 7 7 12 10 2 7 12 6 5 4 2 5 6 6 6 7 8 9 10 7 6 8 8 11 12 14 17 18 18 17 18 18 19 19 19 20
23 21 20 20 21 22 21 20 23 24 22 21 19 14 10 15 23 31 39 39 38 37 36 36 35 37 38 39 30 16 23 33 33 24 6 13 36 40 38 36 33 32 28 25 22 21 22 20 24 24 9 5 8 5 10 10 0 3 7 6 7 6 6 8 8 8 6 7 9 10 9 4 4 7 10 13 13 13 14 15 16 16 16 16 18 20 22 21
22 21 20 19 19 20 19 19 22 26 26 25 24 20 13 12 16 23 33 39 40 38 37 37 36 40 39 36 35 25 22 29 32 31 19 10 23 36 38 36 34 32 30 27 24 23 23 19 22 21 7 7 10 4 9 11 4 4 5 4 6 6 9 12 13 11 8 8 8 6 8 8 9 10 16 21 22 19 18 18 19 18 16 16 17 20 22 23
22 20 20 19 19 19 19 18 19 21 25 27 27 25 22 16 12 17 26 33 41 41 38 39 37 40 37 29 34 32 23 25 29 33 30 15 13 25 29 29 29 29 28 28 26 24 23 18 20 20 7 7 9 4 7 9 7 6 5 4 4 4 7 12 14 10 9 11 9 7 7 11 12 15 23 26 23 21 21 22 23 22 20 18 18 20 22 24
21 19 18 19 18 18 19 19 18 17 20 25 28 27 26 24 17 15 19 25 38 43 40 40 37 36 35 25 26 32 25 22 28 32 33 23 15 19 23 22 21 21 21 24 26 24 23 21 19 19 11 8 8 7 8 7 5 6 4 3 4 5 4 7 9 9 10 9 10 10 8 11 9 12 22 26 23 20 20 20 23 24 22 21 20 21 23 24
20 19 17 18 17 17 18 18 19 18 17 20 26 26 26 28 25 20 18 18 28 40 42 41 39 35 30 21 20 29 28 23 28 32 33 28 21 21 24 24 21 21 19 19 23 23 23 23 18 15 10 9 11 9 7 5 4 4 4 4 4 5 4 5 6 11 11 5 11 11 7 11 11 10 14 16 18 19 19 19 20 23 24 22 22 22 22 24
19 19 17 17 17 17 17 17 18 19 19 18 20 21 22 24 25 27 24 18 18 30 43 43 42 38 23 15 20 30 32 28 29 29 29 29 25 23 26 27 24 23 21 19 20 20 21 20 16 13 10 9 9 7 6 4 4 4 5 4 5 7 6 3 5 11 10 3 10 13 8 9 9 10 15 16 18 19 19 19 19 22 25 23 23 23 23 24
19 19 18 17 17 17 17 18 17 19 21 20 19 18 20 21 21 23 25 25 18 18 33 41 47 40 18 13 22 33 40 34 31 28 25 27 26 25 28 29 27 24 22 21 20 20 20 18 13 9 7 5 6 7 6 6 5 4 4 3 6 9 7 5 4 5 8 5 9 14 12 15 12 8 12 15 17 15 15 19 19 20 24 27 26 25 26 25
19 19 19 17 17 16 17 17 18 19 20 21 21 20 21 22 23 22 21 24 22 17 17 27 42 30 10 19 28 36 48 40 34 30 25 26 26 26 30 31 30 27 24 21 20 19 17 13 9 5 4 5 7 9 8 6 8 8 8 6 6 8 7 7 3 4 7 8 10 12 12 19 20 14 12 13 14 12 13 18 20 19 21 27 28 29 30 28
21 20 19 18 17 16 16 16 15 17 20 22 22 20 19 19 21 23 21 20 19 14 8 12 32 16 2 24 33 33 47 45 36 33 29 30 29 29 31 32 33 31 24 15 12 16 14 8 5 6 7 9 10 11 9 8 14 14 11 8 5 7 7 5 3 3 4 7 10 14 15 17 20 17 16 17 16 14 14 17 19 20 21 25 27 29 31 31
22 20 20 19 17 16 16 16 15 15 19 24 24 21 18 14 10 11 16 19 21 21 15 17 25 9 6 17 31 30 38 43 40 37 35 36 35 34 32 32 30 24 16 11 9 14 14 7 6 9 10 13 15 15 9 7 13 12 7 6 4 6 6 4 4 3 3 6 10 13 15 16 18 17 17 18 16 15 16 18 20 23 24 26 28 28 29 30
21 20 20 19 18 17 16 17 17 15 16 21 25 20 15 15 10 6 11 15 22 26 28 31 24 14 9 8 27 35 35 36 40 39 36 37 39 32 26 26 21 11 11 14 13 12 11 9 10 12 13 14 16 15 8 3 7 8 6 6 5 6 5 2 3 3 3 4 9 11 13 16 18 18 18 16 13 17 21 20 20 23 26 27 29 32 32 31
20 19 19 18 18 17 16 17 16 15 13 17 24 20 13 18 16 10 9 7 13 19 26 31 26 25 23 13 18 39 37 26 31 37 38 41 41 29 22 22 14 8 10 13 12 10 11 11 11 13 13 13 13 13 10 5 6 7 6 5 5 5 3 3 3 3 3 3 7 10 11 15 17 18 20 18 17 20 25 25 22 22 24 26 29 34 35 34
20 18 17 17 17 16 15 16 15 14 13 14 21 21 15 17 21 16 9 3 6 12 20 25 22 22 29 26 17 37 39 25 26 37 45 46 41 32 26 20 11 11 13 11 11 11 9 11 14 15 14 13 11 11 10 6 6 6 6 6 5 5 4 5 3 3 3 4 6 10 12 13 15 16 18 23 26 24 25 27 27 27 28 29 32 36 37 36
19 19 18 17 17 17 15 15 15 14 13 13 17 21 16 14 18 16 11 5 4 8 15 20 21 21 27 29 23 28 34 30 31 38 46 47 37 28 25 22 15 12 13 16 17 12 5 8 18 19 15 16 14 13 13 9 7 8 9 9 5 7 7 3 1 1 3 5 4 8 12 11 13 16 16 19 23 23 24 25 27 29 33 37 38 39 40 38
19 18 17 17 16 16 15 14 15 14 13 14 15 19 18 11 11 12 11 3 5 5 8 12 18 22 26 28 27 23 23 26 36 44 49 50 40 24 19 22 16 11 17 21 18 11 5 14 24 20 16 19 16 14 16 11 7 7 10 11 6 7 7 3 2 2 4 6 3 3 10 7 5 12 11 9 10 13 17 20 23 27 33 41 43 44 44 43
17 17 17 17 15 15 16 13 13 14 14 16 15 17 18 12 10 12 10 1 5 5 7 10 12 14 21 25 27 24 15 17 36 51 53 50 45 30 17 14 8 11 20 18 11 6 5 16 22 19 18 20 15 12 15 14 8 6 8 10 8 8 8 6 5 2 4 6 1 2 8 7 3 7 9 7 8 12 13 15 22 27 30 37 44 48 48 47
16 16 16 16 15 16 15 11 13 16 13 13 14 13 16 15 11 12 8 2 5 6 9 13 10 9 14 22 30 21 6 18 32 46 56 52 46 35 18 12 8 11 17 12 8 4 8 18 19 19 20 16 14 12 13 15 9 4 10 13 11 11 10 9 7 6 4 4 3 5 6 9 10 8 10 11 13 15 15 15 19 24 26 29 37 46 49 49
15 15 15 15 15 15 13 12 14 16 12 11 15 14 12 13 12 10 6 4 4 7 8 12 11 14 12 17 32 20 7 30 25 28 54 53 42 31 17 15 13 12 15 12 8 3 8 18 17 18 16 11 13 11 15 18 9 2 10 13 12 11 9 8 6 5 1 3 7 7 5 7 10 4 7 10 12 13 16 18 17 19 24 27 31 38 45 49
15 15 15 15 15 15 14 13 13 14 13 12 13 14 12 14 13 7 3 5 2 4 5 12 12 16 14 12 25 23 15 22 15 23 48 41 30 21 11 18 18 13 12 6 4 2 5 18 22 19 13 12 14 11 17 19 8 4 10 10 7 4 3 3 4 3 1 4 8 6 8 6 10 4 8 8 9 12 14 15 14 17 24 27 28 33 40 46
16 16 15 16 16 17 16 14 13 13 16 14 12 15 17 15 10 4 6 6 3 2 7 12 11 17 20 12 14 20 16 6 13 33 38 25 22 15 10 18 16 11 8 2 2 3 3 12 18 12 7 8 10 11 14 15 9 12 11 10 8 4 3 2 1 2 3 7 6 9 11 5 8 4 7 6 5 9 10 9 9 14 19 21 26 33 39 43
16 16 17 17 16 17 17 16 16 14 16 14 12 18 20 11 4 4 8 1 4 4 9 9 8 14 22 16 10 16 14 4 14 28 22 13 14 10 10 13 8 7 8 1 1 2 6 10 8 4 5 9 13 9 7 9 13 13 9 9 8 3 2 1 1 3 7 6 3 9 13 10 9 4 4 4 1 4 7 7 8 10 13 18 24 31 37 41
16 16 16 17 16 17 17 16 17 16 16 14 13 17 15 6 3 5 5 4 4 5 8 8 10 11 17 17 12 12 10 5 11 17 15 12 9 8 11 11 9 9 10 10 6 5 8 8 3 3 7 15 15 8 4 5 10 9 8 11 7 3 3 4 4 4 7 4 2 5 8 8 13 9 4 6 7 9 10 10 12 13 14 17 22 28 32 35
16 16 16 17 17 17 15 12 14 17 16 16 14 12 7 4 6 6 4 2 1 2 4 7 12 14 15 15 12 12 9 7 13 15 15 15 11 11 12 11 13 9 5 11 9 7 5 1 1 5 6 15 16 10 7 5 8 8 8 10 7 4 5 6 6 3 5 3 2 4 2 6 12 8 8 12 13 16 14 11 15 19 22 22 21 24 26 27
15 16 16 16 16 16 15 13 13 16 19 19 13 6 5 6 8 10 8 3 1 1 1 3 11 16 15 12 10 11 8 6 15 18 14 14 12 11 10 11 14 7 5 9 5 7 7 1 7 9 6 14 15 10 11 9 8 7 6 7 6 6 6 6 6 5 4 1 3 6 3 7 7 2 3 7 9 13 14 14 17 21 28 30 27 27 26 24
15 16 16 16 16 15 17 17 15 17 21 20 10 4 7 6 5 9 9 4 1 0 2 3 9 14 12 10 9 11 6 2 12 17 14 13 12 13 13 12 16 12 10 11 5 7 9 2 7 7 2 15 18 11 16 15 9 7 5 5 6 6 4 2 1 1 2 1 3 6 5 6 4 6 9 10 11 12 14 16 16 18 25 28 29 32 32 29
15 16 16 15 16 16 17 18 17 17 20 17 8 6 7 4 3 5 6 6 5 4 3 3 7 9 8 7 7 10 8 1 6 10 10 14 14 16 16 10 16 18 12 11 6 7 10 4 6 6 2 10 15 12 17 16 9 6 7 6 3 1 2 2 1 2 3 4 5 6 8 7 5 11 12 13 15 14 14 15 12 13 18 19 25 33 34 34
15 16 16 16 17 17 17 18 16 18 19 13 6 7 6 6 6 4 2 5 6 6 6 6 7 7 5 5 7 12 10 3 5 5 6 12 11 15 17 10 14 19 15 12 5 5 9 3 1 6 6 8 10 12 14 11 8 7 8 7 4 3 1 2 4 2 3 7 4 6 11 8 3 6 3 5 10 12 13 14 12 12 14 15 23 30 29 29
15 14 14 17 18 18 19 18 17 18 16 8 7 9 8 8 10 7 3 2 5 5 5 4 5 6 6 5 6 12 13 8 6 3 4 8 6 12 17 11 13 20 18 15 7 3 9 5 1 4 7 8 8 10 9 7 6 5 6 10 6 2 4 6 5 4 6 7 4 5 9 8 9 9 3 4 7 7 9 10 10 13 13 14 21 26 23 22
14 11 9 13 18 20 20 19 20 19 11 6 9 9 7 8 11 11 8 6 3 4 5 4 4 4 5 6 5 8 12 12 9 4 4 6 3 9 18 13 12 19 20 16 9 6 8 5 3 2 3 7 6 6 8 8 6 3 3 11 7 4 5 6 4 2 4 6 5 4 4 6 9 9 8 11 11 11 12 9 8 13 14 13 17 21 20 17
14 8 4 7 15 21 23 22 21 16 7 6 9 8 7 8 10 13 15 12 6 3 5 5 5 3 3 5 6 6 7 9 9 6 4 6 3 6 16 14 10 17 20 14 8 8 6 3 5 4 2 6 7 7 10 12 10 5 8 12 9 4 2 2 3 2 2 5 6 5 6 7 5 5 8 13 14 16 15 10 8 11 11 12 14 15 14 11
13 5 4 10 15 24 30 24 15 10 6 7 9 9 9 8 8 11 16 16 10 4 3 4 6 6 3 4 3 4 5 4 6 6 4 8 6 4 14 19 14 16 16 10 8 9 5 3 8 9 6 8 9 7 6 9 11 9 8 11 11 8 4 5 7 5 3 4 3 3 7 7 2 5 8 11 12 12 9 7 8 9 9 10 12 13 12 12
12 4 8 16 20 31 33 17 8 9 7 9 11 11 11 8 8 11 13 15 13 7 4 4 7 7 5 5 5 2 5 5 5 6 3 8 12 8 15 25 23 20 15 10 11 9 3 4 7 7 6 5 3 2 0 4 9 8 6 8 10 8 7 8 8 5 4 2 1 0 6 6 2 5 7 8 6 5 4 4 6 8 13 15 15 14 13 13
11 6 11 18 26 36 29 9 7 10 7 10 13 13 12 9 8 11 12 13 12 8 7 6 5 6 5 7 8 4 4 5 7 8 5 7 12 10 15 28 28 22 15 10 10 6 3 5 6 5 3 3 3 1 1 0 4 7 9 8 9 11 10 5 2 2 6 5 3 3 6 7 1 2 4 4 3 4 5 7 8 10 15 18 16 15 13 12
10 9 12 23 34 35 21 5 8 11 8 11 13 14 15 12 12 13 11 12 11 8 10 8 4 6 5 5 8 7 7 6 5 9 8 5 6 6 14 29 28 18 14 13 13 11 7 7 8 7 5 2 1 2 3 3 7 10 11 9 10 11 7 3 1 1 4 9 10 7 9 8 1 2 2 3 4 5 7 9 11 13 16 17 16 14 13 11
9 7 9 26 34 24 10 4 6 9 10 12 12 14 15 13 15 20 17 14 15 12 10 9 7 8 6 4 7 9 10 8 4 6 8 4 3 2 12 31 29 18 18 21 21 16 9 8 10 10 10 9 8 11 11 9 7 5 7 10 13 14 11 7 3 3 6 10 11 10 11 5 3 2 3 4 4 6 7 8 9 12 14 14 12 10 12 12
8 5 5 15 20 12 6 6 6 7 9 11 10 11 15 13 14 22 22 17 18 18 12 10 11 11 9 8 8 8 10 10 4 2 4 6 4 2 11 30 30 24 24 23 22 14 3 7 13 12 13 14 14 16 15 13 11 10 14 19 17 16 16 10 4 8 11 7 7 14 16 6 2 5 6 6 6 7 6 4 4 7 8 8 7 6 9 12
7 6 6 7 8 8 9 9 9 8 9 12 8 7 15 17 12 17 21 17 19 22 15 12 13 13 11 12 9 7 10 9 6 3 5 7 3 2 9 23 29 31 26 17 17 12 2 8 16 15 18 16 9 9 13 16 18 20 22 22 19 18 19 15 13 17 12 5 8 20 21 15 8 8 8 9 8 7 6 4 6 6 4 4 5 5 5 8
8 6 12 13 6 4 8 10 11 12 13 14 10 8 15 19 15 14 16 17 21 22 16 14 17 17 14 13 10 9 9 8 8 8 6 4 1 1 5 10 16 24 19 10 10 8 2 9 16 15 17 12 5 10 16 17 16 17 18 20 20 20 21 20 21 20 12 10 15 13 13 18 15 10 10 11 9 7 7 5 6 7 4 2 4 6 6 4
9 4 10 15 9 5 8 11 12 13 14 12 11 12 15 18 19 16 12 12 16 20 18 16 18 21 19 16 13 11 10 9 9 11 8 6 5 4 5 4 6 12 11 6 5 4 3 8 11 13 14 8 3 8 17 18 14 13 17 20 20 21 23 23 23 20 16 19 21 8 5 14 16 12 12 11 9 8 8 8 9 8 6 5 6 8 9 6
11 7 7 8 7 6 7 9 9 10 12 12 11 13 15 18 21 17 14 15 14 16 21 22 21 22 22 19 16 16 14 11 10 13 12 11 8 7 7 6 5 9 10 7 5 4 5 8 9 11 11 7 2 5 12 18 17 17 18 19 20 21 21 22 22 19 17 22 23 13 10 15 12 10 10 11 11 9 9 13 15 16 14 12 14 16 13 8
17 15 12 6 4 7 7 7 8 8 9 11 11 12 14 20 23 19 17 23 23 18 19 26 26 21 21 25 23 21 19 16 17 19 17 16 14 11 8 5 7 11 10 9 9 7 6 6 7 8 9 8 7 7 11 14 15 15 15 17 20 21 21 22 23 20 19 21 20 15 16 16 9 9 6 10 12 9 10 13 17 21 23 20 21 23 20 13
19 16 15 9 4 7 9 8 9 10 10 11 14 16 17 20 24 21 16 21 29 29 26 28 27 20 19 25 27 27 27 27 29 27 23 23 20 15 12 6 6 13 13 10 11 9 8 7 7 8 10 9 8 8 9 9 8 9 14 21 27 28 26 23 20 19 21 20 17 16 16 9 8 12 11 9 8 8 12 18 23 26 28 26 26 25 22 18
Wind_Direction
229 232 238 241 237 231 222 216 214 215 214 213 213 210 206 205 206 206 205 202 202 205 203 200 198 199 202 203 205 211 213 211 203 196 198 196 188 181 187 189 188 188 188 192 192 192 189 184 192 187 173 167 160 162 178 182 161 159 188 224 219 210 196 183 182 179 74 84 115 172 195 202 171 177 189 196 207 215 221 216 222 220 215 214 200 202 206 196
226 229 233 239 239 232 228 223 214 212 213 213 213 212 209 206 205 207 205 200 199 202 202 198 196 198 202 203 202 205 213 214 210 210 210 204 195 186 189 190 186 186 186 190 195 196 193 189 188 181 173 171 167 170 181 187 191 198 201 226 228 203 175 173 178 180 184 106 106 159 199 214 201 166 184 200 200 200 220 222 223 228 223 220 213 208 209 199
223 225 226 232 237 231 228 229 222 212 210 211 212 212 212 208 205 206 205 201 198 200 203 200 197 198 201 203 200 198 205 210 214 219 217 211 203 194 195 198 195 193 189 190 194 194 191 187 188 182 178 178 169 173 182 184 198 204 203 235 229 169 157 210 196 192 203 165 118 145 189 214 226 177 185 208 197 194 223 222 216 225 225 223 219 215 214 204
222 222 220 224 230 230 227 227 227 217 209 209 209 211 213 210 206 206 206 204 200 199 202 202 199 198 199 200 199 197 192 199 220 220 212 209 205 197 199 208 207 205 204 203 202 204 198 181 178 182 184 186 169 176 191 186 191 181 205 239 187 146 190 198 203 212 212 218 196 139 166 206 220 200 194 201 199 209 231 230 228 230 227 228 224 219 217 210
221 221 217 218 222 225 227 227 228 224 214 208 206 208 210 210 207 205 205 205 202 200 201 202 200 197 195 195 197 193 181 185 236 222 206 201 204 200 200 212 214 213 214 213 213 216 211 189 174 181 187 183 165 184 203 189 186 186 216 242 98 158 198 174 193 204 203 204 182 171 185 197 195 206 208 207 215 230 238 240 244 244 240 240 236 227 223 217
219 220 218 215 215 219 224 228 229 228 225 215 208 206 205 208 209 206 205 204 203 201 200 200 197 195 191 191 193 186 182 182 277 217 209 200 202 202 201 209 216 218 216 213 209 204 199 186 174 184 189 182 181 190 188 184 196 217 226 220 154 190 201 143 163 165 172 178 180 190 215 197 176 210 220 219 231 247 255 259 258 254 250 249 243 236 232 226
217 217 220 217 213 214 217 224 229 227 228 224 214 209 206 204 205 208 205 202 203 201 200 199 193 191 187 186 189 187 195 209 57 190 207 202 202 203 201 205 211 215 213 210 202 197 199 194 187 187 187 185 193 196 164 174 202 230 234 201 186 209 216 188 174 182 191 196 213 218 238 219 199 224 225 224 239 250 259 265 264 262 258 250 241 238 238 234
214 214 218 220 216 212 212 214 219 223 224 225 219 215 212 204 201 205 205 202 202 201 200 197 192 189 185 184 185 191 206 205 140 111 193 199 200 201 201 202 206 206 205 208 204 202 204 200 194 186 195 203 190 188 165 164 203 230 234 191 184 206 218 227 225 242 248 243 248 236 242 239 224 237 239 239 250 256 259 262 260 257 252 248 242 238 237 235
211 211 212 218 218 212 211 210 207 212 216 220 218 215 218 211 201 199 202 203 201 201 200 196 193 186 184 187 186 199 213 201 186 146 177 195 195 195 198 198 201 199 196 200 201 202 200 197 196 190 203 204 179 176 173 186 212 219 224 194 181 195 199 235 243 257 254 245 247 235 245 247 232 242 251 251 256 259 258 257 255 251 246 245 244 240 237 236
208 208 207 212 215 213 215 212 208 207 207 212 209 206 215 216 207 197 197 203 201 199 200 197 193 187 186 190 188 206 218 203 198 199 156 194 193 192 197 197 197 193 193 195 197 204 199 199 201 196 205 193 179 179 178 198 216 202 218 215 211 212 218 245 251 262 260 249 234 234 255 254 218 228 243 248 251 251 249 250 249 246 245 245 245 244 239 238
206 206 204 207 210 213 215 212 211 210 210 213 210 206 204 210 213 200 193 200 203 199 199 199 194 189 189 191 194 209 215 207 204 200 181 193 195 194 197 200 200 197 197 197 200 209 204 206 204 195 203 194 178 178 189 204 188 149 194 213 237 248 253 250 253 252 248 252 227 229 262 255 188 217 231 239 243 245 245 250 250 244 242 243 245 244 241 238
205 203 202 203 204 206 208 208 213 214 214 220 223 224 224 217 217 208 197 196 201 200 198 199 197 194 193 196 204 208 210 210 206 203 199 184 193 198 200 203 208 209 208 204 202 206 203 204 201 191 187 178 162 146 207 203 166 143 165 210 223 230 249 238 238 236 222 241 215 204 267 244 210 216 231 242 246 249 251 254 254 247 240 240 243 243 241 238
204 201 200 201 201 203 204 205 210 212 213 222 231 233 233 231 220 213 206 195 197 201 198 198 201 198 194 201 210 206 207 209 204 205 205 193 183 192 197 202 208 215 218 216 209 205 201 196 196 195 184 172 162 141 181 166 144 153 172 235 207 212 245 221 220 217 211 238 201 178 261 250 223 218 232 242 241 241 245 247 249 247 241 235 238 241 242 238
201 200 198 197 200 202 203 204 204 204 206 217 229 236 236 232 227 215 210 200 194 198 199 197 199 199 198 207 212 203 201 203 202 205 205 200 184 179 185 190 197 207 216 218 210 203 200 194 194 199 193 177 160 137 136 131 161 160 150 223 219 228 223 177 194 189 201 228 183 183 252 258 240 215 225 236 231 228 235 241 244 245 242 235 234 238 243 242
198 200 197 194 197 198 200 204 203 200 197 202 215 229 234 232 236 229 218 208 194 195 198 197 196 195 198 209 210 200 195 195 200 204 207 205 192 178 178 183 190 197 198 199 199 195 195 193 189 186 175 166 156 143 139 140 178 169 171 194 194 230 213 147 177 191 206 203 168 189 246 257 254 227 218 229 228 223 228 237 240 243 244 237 233 235 240 245
196 198 196 193 193 193 195 200 203 199 192 187 192 209 224 227 234 234 230 223 203 191 191 193 194 189 192 207 201 195 194 196 198 200 205 207 201 182 174 181 188 191 190 190 194 190 188 185 175 163 149 156 167 152 141 152 171 193 220 194 167 210 226 184 171 195 213 190 181 207 241 258 252 229 225 231 230 221 224 236 237 239 244 240 237 237 238 243
196 195 195 193 190 189 190 195 201 200 198 195 190 197 209 212 218 230 233 228 225 200 188 189 190 189 195 196 187 190 194 196 194 193 198 203 204 188 175 177 181 184 184 184 185 176 174 173 160 158 153 172 192 163 158 181 175 174 216 221 194 208 220 206 162 175 198 205 216 218 234 253 256 235 221 225 229 221 222 238 240 239 243 244 244 242 240 241
197 195 195 193 189 188 188 192 197 200 203 201 202 208 211 218 226 236 242 235 237 236 216 196 186 186 202 191 184 188 194 195 189 189 190 191 200 192 179 175 175 173 164 162 169 163 161 164 157 165 174 194 195 181 194 185 157 165 189 205 208 209 221 222 190 135 180 205 228 224 227 247 254 249 228 226 235 229 225 240 247 247 246 248 249 246 244 240
197 196 196 193 190 187 186 189 189 193 196 193 195 199 202 215 227 235 244 243 240 235 255 212 185 176 295 196 188 187 194 195 187 187 186 183 189 188 180 177 173 165 153 147 167 164 153 146 170 194 187 191 189 196 206 168 167 182 187 193 195 199 215 222 189 118 180 213 227 231 234 243 252 252 240 240 244 241 238 242 249 252 249 250 251 250 248 244
196 194 194 193 189 185 183 186 187 187 189 190 186 178 179 184 193 225 230 233 238 229 243 241 201 182 14 179 182 185 189 191 188 185 185 180 179 178 176 174 169 164 159 152 164 167 160 162 200 200 189 185 185 197 205 165 179 186 174 189 201 203 211 202 182 133 156 235 236 235 242 248 255 258 251 247 247 248 247 242 242 247 249 249 249 249 249 249
193 192 190 189 185 183 181 182 189 187 183 191 188 176 174 178 178 201 197 218 238 231 239 251 246 265 304 170 180 184 174 180 187 183 182 179 173 171 168 169 166 174 176 147 140 156 171 199 207 196 189 180 184 197 201 166 181 183 170 186 202 216 225 184 178 157 137 242 252 250 257 257 255 261 260 250 240 245 247 243 240 241 247 249 249 249 250 252
187 186 184 184 181 179 179 180 188 188 180 189 192 189 187 187 197 201 177 214 241 232 239 248 261 271 265 264 204 184 170 168 179 176 178 177 173 170 167 172 172 173 170 139 133 160 189 214 198 179 174 165 180 198 196 181 180 187 183 190 207 205 237 257 207 186 173 231 264 270 272 264 260 261 261 254 242 243 245 246 245 242 243 247 250 251 252 254
178 176 178 181 179 177 175 177 183 187 183 184 192 197 195 189 199 209 201 236 250 229 235 240 254 262 255 267 239 184 174 173 172 171 177 177 173 175 168 169 175 161 163 163 166 174 197 213 181 157 151 157 179 193 191 192 193 198 186 192 206 168 190 241 201 167 201 234 279 290 285 272 264 258 256 253 245 242 243 245 249 247 247 249 251 254 254 255
172 173 178 180 181 179 173 175 180 186 189 185 191 198 198 188 189 196 192 213 274 222 229 237 239 247 248 256 247 195 177 177 175 171 177 175 169 173 171 166 168 162 172 182 182 183 180 174 166 155 155 172 182 185 189 196 199 206 202 204 201 167 193 236 47 26 249 234 253 288 287 275 254 242 245 250 240 237 239 242 246 247 249 252 252 253 254 253
170 171 175 177 182 181 176 179 178 180 187 191 197 198 201 192 169 169 161 191 282 213 219 230 225 239 240 244 252 227 186 175 179 176 178 179 170 164 171 173 170 169 181 182 182 195 182 158 164 164 171 182 183 187 193 193 193 207 211 213 199 170 191 201 59 2 286 251 200 249 278 276 225 226 237 249 240 235 232 232 240 243 245 248 247 248 249 250
172 172 173 174 180 182 180 179 172 178 187 195 202 199 203 196 161 159 143 51 279 178 165 179 194 229 227 232 240 229 208 179 183 182 181 183 179 167 163 173 182 182 177 177 185 205 179 168 172 173 177 183 186 193 192 186 197 215 189 189 193 184 188 181 164 192 265 270 191 179 264 282 267 241 242 251 260 255 239 231 236 237 237 240 242 244 245 247
176 177 177 174 178 184 182 173 173 181 183 193 200 196 203 202 174 156 141 292 249 153 151 170 177 192 198 219 217 217 217 156 172 183 180 182 183 175 170 169 184 189 168 162 193 199 163 172 178 180 181 185 194 197 184 181 201 205 152 162 186 193 193 190 191 218 256 311 280 206 237 282 279 254 235 238 255 260 251 243 237 233 234 236 240 243 244 245
178 176 182 180 180 184 180 178 181 179 174 188 195 190 192 193 178 151 143 247 200 124 145 169 177 182 183 208 205 214 175 149 158 184 179 180 181 177 182 180 176 179 165 165 194 183 158 173 175 177 180 190 201 188 164 175 201 179 140 157 186 192 192 193 198 225 280 333 265 210 175 268 276 221 186 213 239 253 249 246 241 234 234 235 236 240 242 244
185 180 182 181 179 181 180 182 177 166 161 162 174 180 176 174 169 146 170 226 145 83 157 165 168 174 167 179 196 214 205 161 151 172 176 181 181 177 187 184 173 158 159 180 197 144 162 177 175 173 181 201 199 166 158 178 200 146 134 129 141 149 146 172 195 200 184 256 252 192 162 248 281 224 172 191 225 241 246 246 245 242 236 234 236 240 242 243
190 187 183 180 180 181 180 182 175 167 164 157 157 164 162 164 163 156 212 205 100 99 162 163 169 165 163 171 193 206 217 190 135 157 172 182 178 173 162 167 164 147 151 17 57 121 122 165 175 178 192 190 162 138 160 180 154 126 130 113 101 85 72 85 203 173 213 250 236 172 167 216 286 251 174 175 205 225 242 253 252 249 242 236 236 241 244 244
188 187 185 186 185 182 183 184 179 171 168 167 168 164 157 156 156 192 208 156 48 175 163 158 176 164 168 182 198 197 207 211 140 151 165 172 167 166 148 153 150 142 162 135 67 158 135 152 175 194 175 133 116 118 144 155 145 138 138 127 113 99 106 119 172 183 228 242 177 168 174 194 240 246 147 152 143 198 230 250 254 255 248 240 241 245 246 245
184 183 186 190 189 188 189 187 181 175 171 172 169 161 155 155 196 205 194 75 46 199 167 155 172 169 175 184 196 200 192 176 159 156 161 165 167 176 172 172 162 156 176 176 167 165 157 164 147 100 160 147 130 128 120 138 162 161 150 148 144 150 163 196 195 197 235 231 132 180 182 207 239 256 245 243 261 250 239 238 248 257 256 248 250 254 253 248
180 180 184 188 191 192 185 180 183 181 179 179 169 158 163 193 192 194 203 141 67 219 178 170 170 162 170 182 201 207 194 173 170 165 168 170 169 183 197 192 170 165 178 164 150 143 149 291 142 128 169 170 158 151 156 171 178 172 161 162 163 154 171 205 199 217 248 221 165 176 166 252 257 269 254 243 254 261 261 254 248 251 254 255 256 259 259 253
178 180 184 186 191 189 176 168 170 173 178 179 172 169 206 210 178 181 209 225 39 18 283 198 168 158 167 183 197 203 206 197 174 168 172 175 170 183 202 197 183 170 131 151 155 157 161 248 189 174 168 176 178 165 148 142 158 177 174 171 180 179 194 208 197 211 222 153 162 171 177 239 237 357 309 262 269 269 272 269 260 255 254 256 259 261 261 257
181 183 186 188 189 186 179 173 160 159 169 170 167 197 211 207 173 178 203 206 114 219 280 249 173 161 174 188 193 193 190 223 187 175 175 179 177 182 184 190 193 184 156 164 174 173 184 220 173 170 154 175 179 157 136 137 158 186 174 184 207 200 188 196 235 214 131 99 186 190 237 251 249 316 294 272 274 266 260 257 252 253 255 256 259 261 261 261
184 185 190 194 192 187 184 180 169 165 167 161 163 207 213 229 201 179 198 190 175 166 167 215 185 168 179 180 191 196 172 137 211 193 182 181 184 186 182 184 190 189 179 167 152 174 191 189 149 138 81 183 178 152 152 157 155 173 187 194 204 152 110 144 230 62 95 243 220 188 248 275 298 289 264 245 253 253 255 255 242 244 254 255 255 257 258 260
187 188 195 200 196 192 186 181 176 173 170 165 178 199 206 237 227 207 213 185 179 173 171 193 186 177 188 171 189 196 172 154 227 224 191 183 189 189 184 184 189 192 188 168 156 189 173 130 117 151 144 179 168 146 166 175 139 145 192 184 122 42 14 220 225 163 175 242 237 195 238 261 268 270 236 194 233 238 246 255 250 249 250 248 254 258 260 260
193 194 204 207 201 195 188 183 178 172 169 171 197 202 202 225 228 226 251 194 175 182 194 212 185 178 186 172 189 191 175 173 201 213 188 184 191 186 180 181 191 195 192 175 164 172 154 119 8 190 160 161 151 143 171 218 204 185 185 167 156 192 194 195 215 201 196 229 252 214 234 249 231 235 229 181 207 222 236 242 240 244 240 239 254 263 266 263
194 195 213 217 207 197 187 182 178 175 174 185 200 206 204 221 235 232 238 259 246 201 201 216 203 207 210 187 177 183 183 189 187 172 189 195 198 186 184 182 187 194 193 183 171 161 158 140 139 208 158 141 156 170 176 202 223 260 179 175 195 235 198 192 197 198 201 216 249 240 230 244 223 213 222 221 222 235 245 243 232 239 238 236 252 267 272 269
192 189 206 198 197 195 183 174 175 176 185 204 204 210 206 217 237 236 235 244 255 221 210 214 199 212 258 211 177 172 192 205 194 177 183 194 207 198 192 186 177 186 188 185 176 158 159 171 147 146 144 155 181 200 189 187 182 179 186 187 196 198 179 216 206 210 220 211 231 241 244 251 214 172 204 221 228 236 244 253 243 240 241 240 251 265 274 271
183 186 192 163 169 179 171 165 172 181 195 211 212 215 213 219 231 234 236 238 246 246 217 236 221 208 227 226 196 155 168 202 208 199 185 187 200 216 196 192 178 174 178 178 178 169 170 186 150 145 174 188 190 194 194 191 183 183 192 193 193 182 156 194 203 199 216 220 213 232 265 268 187 158 202 215 226 230 233 248 249 249 252 250 253 257 260 266
180 181 173 160 163 170 165 160 179 186 195 209 209 211 214 223 228 228 231 232 241 248 222 243 248 225 199 212 250 212 162 181 196 201 208 197 208 214 193 191 181 169 174 180 178 170 122 116 133 139 174 178 156 146 226 204 195 203 223 211 198 188 181 202 214 190 181 225 13 53 282 283 152 158 201 209 225 229 214 231 249 262 261 259 261 255 253 262
185 160 160 169 173 170 165 163 190 184 203 213 210 217 217 221 229 227 227 224 226 232 227 235 250 242 214 192 218 229 186 199 192 195 219 214 218 222 192 190 184 172 178 188 175 159 88 114 126 102 82 55 53 76 7 330 187 209 233 222 200 200 197 199 246 172 174 201 207 213 260 265 197 140 206 228 261 266 251 239 241 260 264 263 262 255 251 256
176 150 157 179 179 171 168 176 178 183 207 208 208 219 219 225 230 223 221 220 217 216 222 226 229 244 243 173 192 199 189 211 207 195 210 218 224 227 187 190 191 183 185 186 175 178 181 160 141 131 143 140 98 177 198 203 197 207 214 206 206 210 189 120 70 162 203 210 198 210 250 249 195 93 215 242 263 267 262 249 244 254 265 267 262 252 246 246
158 150 163 182 182 177 179 190 168 182 199 201 210 218 216 224 228 224 222 220 219 221 221 220 216 227 235 187 199 202 188 203 224 200 209 217 248 284 182 188 194 200 200 188 176 180 184 169 163 160 166 174 185 194 193 186 186 202 196 192 207 207 188 181 188 187 227 216 192 210 239 236 95 118 203 211 230 256 258 249 247 251 261 270 267 253 239 237
161 176 177 188 195 202 226 231 213 204 198 198 209 216 218 226 227 221 221 219 220 223 227 225 213 219 232 215 206 209 196 197 195 197 230 212 208 316 190 187 193 205 206 189 174 169 156 185 190 187 188 193 197 197 184 155 149 180 195 195 198 197 193 192 186 210 221 202 181 220 231 227 147 183 203 204 211 238 242 213 211 235 258 282 284 267 242 235
169 178 175 185 208 218 224 229 222 216 211 208 207 205 214 223 227 216 214 215 215 216 225 232 213 210 223 215 209 212 202 197 182 183 249 230 215 330 198 191 198 204 202 186 174 169 133 196 197 200 209 211 200 180 167 157 172 190 193 192 191 190 193 196 207 217 207 165 222 232 228 230 223 191 205 218 203 216 243 213 187 206 246 309 319 310 269 239
187 183 181 184 189 199 209 211 209 217 220 213 217 229 220 221 225 217 208 211 214 210 215 227 218 212 213 208 212 215 196 198 205 202 222 231 200 342 192 194 211 207 195 182 187 180 163 203 199 200 212 216 173 159 169 175 190 190 183 186 188 187 192 202 217 220 194 196 236 232 208 222 225 199 211 227 207 206 233 227 207 206 220 313 340 340 327 278
191 185 179 186 194 200 194 191 194 214 222 215 220 234 232 228 227 222 211 209 214 210 209 219 217 213 212 206 209 218 202 190 206 211 206 195 189 196 180 183 227 209 186 180 210 204 195 206 199 198 208 214 182 178 179 180 189 186 182 187 186 186 194 205 218 220 207 224 240 236 205 231 227 206 214 226 220 222 239 249 250 247 250 278 301 313 327 326
193 202 182 176 204 224 211 196 193 209 219 215 220 225 229 234 231 226 219 212 212 207 207 217 218 209 211 209 206 218 215 194 202 213 199 186 193 202 196 191 187 184 180 185 202 220 218 201 184 189 203 201 193 215 194 186 189 187 185 185 183 188 200 211 222 218 210 232 243 242 259 259 232 203 220 241 241 241 251 258 262 264 266 278 286 285 293 304
203 200 189 175 214 219 218 223 215 223 228 219 221 223 224 231 232 229 225 218 217 213 202 210 216 210 210 213 211 216 215 204 213 217 198 191 200 196 194 204 173 171 182 189 191 198 208 197 171 176 204 201 184 198 197 189 192 192 187 183 183 192 202 210 218 211 206 227 237 233 250 256 216 168 205 256 260 263 265 261 264 264 261 264 270 271 271 271
208 201 196 203 233 203 205 225 217 221 232 218 218 223 223 228 229 229 230 221 219 220 210 206 210 210 211 213 211 213 214 212 221 224 208 202 204 190 183 197 186 184 184 181 189 193 189 191 176 172 200 207 174 164 167 162 173 197 197 190 189 196 203 208 215 212 210 221 225 220 231 233 147 153 188 223 239 247 252 250 251 253 250 250 254 257 260 261